Location: �terpigny
(49.8910°N, 2.9249°E)
Time: 23:36:18
(UTC+00:00)

Cosmos 1908 - Pass Details

Date: 29 May 2022
Orbit: 505 x 524 km, 82.5° (Epoch: 01 July)

Event Time Altitude Azimuth Distance (km) Brightness Sun altitude
Rises 00:35:09 0° 337° (NNW) 2,622 7.7 -17.7°
Reaches altitude 10° 00:37:40 10° 321° (NW) 1,730 6.4 -17.6°
Maximum altitude 00:40:30 20° 272° (W) 1,203 4.9 -17.5°
Enters shadow 00:41:14 19° 256° (WSW) 1,244 4.8 -17.5°
